Regional Weather Roundup
Issued by NWS

Home | Current Version | Previous Version | Text Only | Print | Product List | Glossary On
Versions: 1 2 3 4 5 6 7 8 9 10 11 12 13 14 15 16 17 18 19 20 21 22 23 24 25 26 27 28 29 30 31 32 33 34 35 36 37 38 39 40 41 42 43 44 45 46 47 48 49 50
112
ASUS42 KKEY 121810
RWRKEY

FLORIDA REGIONAL WEATHER ROUNDUP FOR THE FLORIDA KEYS
NATIONAL WEATHER SERVICE KEY WEST FLORIDA
100 PM EST FRI FEB 12 2016

...SOUTH FLORIDA AND THE KEYS...

CITY           SKY/WX    TMP DP  RH WIND       PRES   REMARKS
FORT MYERS     SUNNY     72  40  31 W7        30.28F
SW REGIONAL AP SUNNY     73  38  27 W7        30.28F
NAPLES         SUNNY     71  49  45 SW8       30.28F
MIAMI          MOSUNNY   73  54  51 SE7G16    30.26F
WEST KENDALL   MOSUNNY   74  55  51 E8        30.26F
HOMESTEAD      NOT AVBL
MARATHON       SUNNY     70  57  63 NE12      30.25F
BOCA CHICA NAS SUNNY     71  57  61 NE12      30.26F
KEY WEST INTL  SUNNY     70  59  68 NE10      30.26F

...INTERNATIONAL WEATHER...

CITY           SKY/WX    TMP DP  RH WIND       PRES   REMARKS
NASSAU BAHAMAS MOSUNNY   77  59  53 NE8       30.24F
CANCUN MEXICO  MOSUNNY   75  57  53 NE10      30.22F
COZUMEL MEXICO MOSUNNY   73  61  64 NE12      30.21F

ADJACENT COASTAL WATERS...

STATION/POSITION TIME  SKY/WX   TEMP    WIND        PRES    WAVE
                                AIR SEA DIR/SP/G            HT/PER
                 (UTC)          (F)     (DEG/KT/KT) (MB)    (FT/S)
PULASKI SHOAL LI NOT AVBL
SAND KEY         1750            65      40/ 15/ 17 1025.0F
SOMBRERO KEY     NOT AVBL
LONG KEY         1700            64 63  360/  6/  7 1026.2F
MOLASSES REEF    1700            70 77   70/ 10/ 11 1025.2F
FOWEY ROCKS      NOT AVBL

$$




USA.gov is the U.S. government's official web portal to all federal, state and local government web resources and services.